User: anonymous   Login
Location: Caltech
(34.1382°N, 118.1253°W)
Time: 03:04:36
(UTC-07:00)
Language:

Iridium 14 - Orbit

View from above orbital plane
View from above orbital plane
View from above satellite
View from above satellite

Ground track
Ground track

The orbit data is extracted from the following two-line orbital elements,

1 25777U 99032A   16273.44707029  .00000205  00000-0  66190-4 0  9996
2 25777  86.3982 332.9613 0002404  97.4192  14.9296 14.34228529917306
Epoch (UTC): 29 September 2016 10:43:46
Eccentricity: 0.0002404
inclination: 86.3982°
perigee height: 776 km
apogee height: 779 km
right ascension of ascending node: 332.9613°
argument of perigee: 97.4192°
revolutions per day: 14.34228529
mean anomaly at epoch: 14.9296°
orbit number at epoch: 91730

The dashed part of the orbit path shows where the satellite is in the earth's shadow,  

DLR